KD7DVD-1 Weather Reports


time (UTC)temp
C
wind
direction
speed
KPH
gust
KPH
rain 1hr
cm
rain 24hr
cm
rain mn
cm
humidity
%
barometer
mb
20260509053016 11 0.0 1.6 0.00 0.00 0.00 82 1022.3
20260509050017 11 0.0 1.6 0.00 0.00 0.00 80 1022.2
20260509043016 12 0.0 0.0 0.00 0.00 0.00 79 1022.0
20260509040016 12 0.0 1.6 0.00 0.00 0.00 76 1021.8
20260509033016 13 0.0 0.0 0.00 0.00 0.00 72 1021.4
20260509030021 15 0.0 1.6 0.00 0.00 0.00 67 1020.9
20260509023016 16 0.0 8.0 0.00 0.00 0.00 62 1020.8
20260509020016 18 0.0 4.8 0.00 0.00 0.00 55 1020.9
20260509013016 19 0.0 3.2 0.00 0.00 0.00 54 1020.9
20260509010016 18 0.0 6.4 0.00 0.00 0.00 53 1021.0
20260509003016 20 0.0 8.0 0.00 0.00 0.00 49 1021.2
20260509000016 19 0.0 6.4 0.00 0.00 0.00 51 1021.3
20260508233016 18 0.0 8.0 0.00 0.00 0.00 51 1021.0
20260508230016 18 0.0 8.0 0.00 0.00 0.00 53 1021.2
20260508223015 16 0.0 8.0 0.00 0.00 0.00 58 1021.2
20260508220015 17 0.0 4.8 0.00 0.00 0.00 57 1021.3
20260508213015 16 0.0 9.7 0.00 0.00 0.00 61 1021.3
20260508210015 16 0.0 6.4 0.00 0.00 0.00 58 1021.3
20260508203016 16 0.0 6.4 0.00 0.00 0.00 59 1021.1
20260508200017 15 0.0 6.4 0.00 0.00 0.00 62 1021.0
20260508193017 15 0.0 4.8 0.00 0.00 0.00 60 1020.9
20260508190017 14 0.0 6.4 0.00 0.00 0.00 65 1020.9
20260508183017 14 0.0 8.0 0.00 0.00 0.00 67 1020.7
20260508180017 14 0.0 6.4 0.00 0.00 0.00 66 1020.2
20260508173017 13 0.0 6.4 0.00 0.00 0.00 68 1020.0
20260508170017 13 0.0 8.0 0.00 0.00 0.00 70 1019.6
20260508163017 12 0.0 1.6 0.00 0.00 0.00 73 1019.5
20260508160017 12 0.0 3.2 0.00 0.00 0.00 74 1019.2
20260508153016 12 0.0 1.6 0.00 0.00 0.00 74 1019.5
20260508150016 11 0.0 1.6 0.00 0.00 0.00 82 1019.3
20260508143016 10 0.0 1.6 0.00 0.00 0.00 84 1018.8
20260508140016 10 0.0 1.6 0.00 0.00 0.00 86 1018.2
20260508133016 9 0.0 3.2 0.00 0.00 0.00 88 1017.6
20260508130016 9 0.0 0.0 0.00 0.00 0.00 89 1017.3
20260508123016 9 0.0 0.0 0.00 0.00 0.00 91 1017.1
20260508120016 9 0.0 0.0 0.00 0.00 0.00 91 1016.8
20260508113016 9 0.0 0.0 0.00 0.00 0.00 91 1016.5
20260508110016 9 0.0 0.0 0.00 0.00 0.00 91 1016.3
20260508103016 10 0.0 0.0 0.00 0.00 0.00 90 1016.1
20260508100016 10 0.0 0.0 0.00 0.00 0.00 90 1016.0
20260508093016 10 0.0 0.0 0.00 0.00 0.00 90 1016.0
20260508090016 10 0.0 0.0 0.00 0.00 0.00 89 1016.0
20260508083015 10 0.0 0.0 0.00 0.00 0.00 88 1015.9
20260508080015 11 0.0 0.0 0.00 0.00 0.00 87 1015.9
20260508073015 11 0.0 0.0 0.00 0.00 0.00 86 1016.0
20260508070015 11 0.0 0.0 0.00 0.00 0.00 86 1016.0
20260508063016 11 0.0 0.0 0.00 0.00 0.00 84 1016.1
20260508060016 11 0.0 0.0 0.00 0.00 0.00 83 1016.2